AIC6HT VOHS-VABB

Flight info

Callsign AIC6HT
Flight time N/A
Altitude 36000
Route TAMIV5 APUSU W18 OPAKA EMRAK2A
Aircraft A20N/M-SDE2E3FGHIRWXY/LB1

Departure

Time 2026-04-25 09:27
Airport Rajiv Gandhi International Airport (VOHS)

Arrival

Time N/A
Airport Chhatrapati Shivaji Maharaj International Airport (VABB)
Time Latitude Longitude Altitude Speed Heading
2026-04-25 08:08 17.23427 78.43030 1982 ft 0 kts 359°
2026-04-25 09:06 17.23415 78.43030 1981 ft 3 kts 359°
2026-04-25 09:06 17.23396 78.43030 1982 ft 3 kts 359°
2026-04-25 09:06 17.23376 78.43031 1980 ft 3 kts 359°
2026-04-25 09:07 17.23357 78.43031 1981 ft 3 kts
2026-04-25 09:07 17.23339 78.43025 1980 ft 3 kts 47°
2026-04-25 09:07 17.23329 78.43007 1984 ft 3 kts 89°
2026-04-25 09:07 17.23330 78.42990 1980 ft 0 kts 92°
2026-04-25 09:12 17.23328 78.43026 1983 ft 11 kts 93°
2026-04-25 09:12 17.23326 78.43108 1981 ft 11 kts 90°
2026-04-25 09:12 17.23290 78.43161 1981 ft 9 kts 163°
2026-04-25 09:13 17.23240 78.43165 1980 ft 0 kts 182°
2026-04-25 09:16 17.23235 78.43164 1980 ft 4 kts 182°
2026-04-25 09:16 17.23147 78.43161 1982 ft 15 kts 174°
2026-04-25 09:16 17.23090 78.43227 1979 ft 12 kts 98°
2026-04-25 09:16 17.23086 78.43307 1978 ft 10 kts 90°
2026-04-25 09:17 17.23079 78.43587 1980 ft 27 kts 89°
2026-04-25 09:17 17.23083 78.43804 1981 ft 32 kts 90°
2026-04-25 09:17 17.23075 78.44039 1982 ft 33 kts 93°
2026-04-25 09:18 17.23098 78.44283 1984 ft 34 kts 85°
2026-04-25 09:18 17.23110 78.44537 1980 ft 36 kts 90°
2026-04-25 09:18 17.23106 78.44802 1979 ft 37 kts 90°
2026-04-25 09:18 17.23107 78.45076 1979 ft 35 kts 89°
2026-04-25 09:19 17.23110 78.45211 1981 ft 0 kts 88°
2026-04-25 09:20 17.23111 78.45248 1982 ft 12 kts 88°
2026-04-25 09:20 17.23057 78.45323 1979 ft 19 kts 172°
2026-04-25 09:20 17.23022 78.45322 1981 ft 0 kts 188°
2026-04-25 09:24 17.22997 78.45316 1979 ft 11 kts 198°
2026-04-25 09:24 17.22912 78.45252 1980 ft 14 kts 232°
2026-04-25 09:24 17.22912 78.45201 1982 ft 0 kts 272°
2026-04-25 09:26 17.22912 78.45190 1982 ft 13 kts 272°
2026-04-25 09:26 17.22908 78.44816 1980 ft 85 kts 268°
2026-04-25 09:26 17.22903 78.44001 1981 ft 136 kts 269°
2026-04-25 09:27 17.22857 78.42895 1982 ft 169 kts 271°
2026-04-25 09:27 17.22879 78.41615 1988 ft 184 kts 276°
2026-04-25 09:27 17.22984 78.40324 2625 ft 172 kts 281°
2026-04-25 09:27 17.23274 78.39131 3178 ft 171 kts 285°
2026-04-25 09:28 17.23521 78.37880 3524 ft 183 kts 278°
2026-04-25 09:28 17.23478 78.36501 3843 ft 199 kts 259°
2026-04-25 09:28 17.23172 78.35011 4064 ft 219 kts 258°
2026-04-25 09:28 17.22921 78.33370 4250 ft 237 kts 267°
2026-04-25 09:29 17.23075 78.31589 4434 ft 257 kts 285°
2026-04-25 09:29 17.23601 78.29728 4665 ft 277 kts 288°
2026-04-25 09:29 17.24195 78.27732 4836 ft 297 kts 288°
2026-04-25 09:29 17.24828 78.25600 5018 ft 315 kts 288°
2026-04-25 09:30 17.25480 78.23381 5170 ft 332 kts 288°
2026-04-25 09:30 17.26175 78.20990 5319 ft 347 kts 287°
2026-04-25 09:30 17.26877 78.18566 5446 ft 359 kts 287°
2026-04-25 09:30 17.27612 78.16026 5641 ft 367 kts 287°
2026-04-25 09:31 17.28357 78.13459 6324 ft 357 kts 288°
2026-04-25 09:31 17.29052 78.11064 7245 ft 339 kts 288°
2026-04-25 09:31 17.29721 78.08754 8225 ft 322 kts 288°
2026-04-25 09:31 17.30347 78.06580 9183 ft 304 kts 288°
2026-04-25 09:32 17.30941 78.04527 10073 ft 285 kts 288°
2026-04-25 09:32 17.31492 78.02619 10842 ft 268 kts 288°
2026-04-25 09:32 17.32027 78.00766 11298 ft 266 kts 288°
2026-04-25 09:32 17.32566 77.98904 11593 ft 268 kts 288°
2026-04-25 09:33 17.33109 77.97031 11884 ft 269 kts 288°
2026-04-25 09:33 17.33653 77.95150 12162 ft 271 kts 287°
2026-04-25 09:33 17.34201 77.93252 12367 ft 276 kts 287°
2026-04-25 09:33 17.34767 77.91294 12452 ft 286 kts 287°
2026-04-25 09:34 17.35352 77.89270 12600 ft 292 kts 287°
2026-04-25 09:34 17.35923 77.87286 13252 ft 277 kts 287°
2026-04-25 09:34 17.36471 77.85383 13590 ft 277 kts 287°
2026-04-25 09:34 17.37032 77.83438 13910 ft 279 kts 287°
2026-04-25 09:35 17.37595 77.81486 14329 ft 279 kts 287°
2026-04-25 09:35 17.38156 77.79543 14795 ft 280 kts 287°
2026-04-25 09:35 17.38719 77.77590 15347 ft 279 kts 286°
2026-04-25 09:35 17.39279 77.75643 15985 ft 277 kts 286°
2026-04-25 09:36 17.39835 77.73710 16687 ft 276 kts 286°
2026-04-25 09:36 17.40346 77.71935 17349 ft 276 kts 286°
2026-04-25 09:36 17.40893 77.70029 18000 ft 278 kts 286°
2026-04-25 09:36 17.41451 77.68089 18570 ft 281 kts 285°
2026-04-25 09:37 17.42017 77.66122 19118 ft 283 kts 285°
2026-04-25 09:37 17.42592 77.64133 19655 ft 285 kts 285°
2026-04-25 09:37 17.43168 77.62136 20192 ft 287 kts 284°
2026-04-25 09:37 17.43923 77.60182 20718 ft 292 kts 294°
2026-04-25 09:38 17.44851 77.58278 21221 ft 296 kts 294°
2026-04-25 09:38 17.45801 77.56349 21720 ft 299 kts 293°
2026-04-25 09:38 17.45819 77.56313 21732 ft 299 kts 293°
2026-04-25 09:39 17.46080 77.55782 21863 ft 299 kts 293°
2026-04-25 09:39 17.46979 77.53945 22319 ft 303 kts 293°
2026-04-25 09:39 17.47343 77.53198 22506 ft 304 kts 292°
2026-04-25 09:40 17.49261 77.49237 23479 ft 310 kts 292°
2026-04-25 09:40 17.50237 77.47213 23911 ft 312 kts 291°
2026-04-25 09:40 17.51217 77.45179 24350 ft 313 kts 291°
2026-04-25 09:40 17.52199 77.43142 24763 ft 315 kts 291°
2026-04-25 09:41 17.53189 77.41087 25202 ft 316 kts 291°
2026-04-25 09:41 17.54183 77.39022 25598 ft 318 kts 291°
2026-04-25 09:41 17.55182 77.36948 26014 ft 319 kts 291°
2026-04-25 09:41 17.56185 77.34865 26416 ft 321 kts 291°
2026-04-25 09:42 17.57195 77.32766 26804 ft 323 kts 290°
2026-04-25 09:42 17.58208 77.30657 27211 ft 324 kts 290°
2026-04-25 09:42 17.59225 77.28542 27576 ft 327 kts 290°
2026-04-25 09:42 17.60251 77.26405 27963 ft 328 kts 290°
2026-04-25 09:43 17.60809 77.25243 28175 ft 329 kts 290°
2026-04-25 09:45 17.61330 77.24159 28379 ft 329 kts 290°
2026-04-25 09:46 17.62365 77.22004 28738 ft 331 kts 290°
2026-04-25 09:46 17.63406 77.19835 29086 ft 333 kts 289°
2026-04-25 09:46 17.64453 77.17654 29462 ft 335 kts 289°
2026-04-25 09:46 17.65145 77.16209 29701 ft 336 kts 289°
2026-04-25 09:47 17.66199 77.14012 30018 ft 338 kts 289°
2026-04-25 09:47 17.67604 77.11079 30409 ft 341 kts 289°
2026-04-25 09:47 17.68672 77.08849 30703 ft 343 kts 289°
2026-04-25 09:47 17.69745 77.06608 30967 ft 345 kts 289°
2026-04-25 09:48 17.70825 77.04351 31255 ft 347 kts 289°
2026-04-25 09:48 17.71557 77.02822 31456 ft 348 kts 289°
2026-04-25 09:48 17.73002 76.99803 31827 ft 350 kts 289°
2026-04-25 09:48 17.73731 76.98279 31985 ft 352 kts 289°
2026-04-25 09:49 17.74831 76.95976 32229 ft 355 kts 289°
2026-04-25 09:49 17.75943 76.93650 32488 ft 356 kts 289°
2026-04-25 09:49 17.77058 76.91320 32751 ft 358 kts 289°
2026-04-25 09:49 17.78178 76.88975 32988 ft 360 kts 288°
2026-04-25 09:50 17.79299 76.86625 33220 ft 362 kts 288°
2026-04-25 09:50 17.80430 76.84256 33463 ft 363 kts 288°
2026-04-25 09:50 17.81564 76.81879 33711 ft 365 kts 288°
2026-04-25 09:50 17.82706 76.79486 33890 ft 369 kts 288°
2026-04-25 09:51 17.85027 76.74603 33994 ft 382 kts 289°
2026-04-25 09:51 17.87443 76.69527 34096 ft 395 kts 289°
2026-04-25 09:52 17.89938 76.64283 34193 ft 408 kts 289°
2026-04-25 09:52 17.92511 76.58874 34298 ft 420 kts 289°
2026-04-25 09:53 17.95156 76.53309 34400 ft 432 kts 289°
2026-04-25 09:53 17.97759 76.47837 34480 ft 443 kts 291°
2026-04-25 09:54 17.99454 76.45068 34526 ft 459 kts 301°
2026-04-25 09:54 18.01701 76.42609 34572 ft 475 kts 313°
2026-04-25 09:54 18.04454 76.40590 34630 ft 490 kts 324°
2026-04-25 09:54 18.07514 76.38974 34778 ft 493 kts 326°
2026-04-25 09:55 18.10570 76.37381 35272 ft 483 kts 326°
2026-04-25 09:55 18.13548 76.35824 35731 ft 473 kts 326°
2026-04-25 09:55 18.16474 76.34284 35889 ft 470 kts 326°
2026-04-25 09:55 18.19413 76.32727 35921 ft 474 kts 326°
2026-04-25 09:56 18.23343 76.30641 35926 ft 482 kts 326°
2026-04-25 09:57 18.26999 76.28705 35918 ft 488 kts 326°
2026-04-25 09:57 18.33072 76.25498 35921 ft 488 kts 326°
2026-04-25 09:58 18.39159 76.22282 35920 ft 488 kts 326°
2026-04-25 09:58 18.45227 76.19070 35925 ft 487 kts 326°
2026-04-25 09:59 18.51249 76.15879 35941 ft 487 kts 326°
2026-04-25 09:59 18.57317 76.12661 35919 ft 486 kts 326°
2026-04-25 10:00 18.63356 76.09457 35939 ft 486 kts 326°
2026-04-25 10:00 18.69402 76.06246 35922 ft 485 kts 325°
2026-04-25 10:01 18.75438 76.03036 35919 ft 485 kts 325°
2026-04-25 10:01 18.81434 75.99847 35923 ft 485 kts 325°
2026-04-25 10:02 18.87285 75.96732 35909 ft 484 kts 325°
2026-04-25 10:02 18.93307 75.93523 35898 ft 484 kts 325°
2026-04-25 10:03 18.99315 75.90319 35896 ft 483 kts 325°
2026-04-25 10:03 19.05313 75.87118 35891 ft 483 kts 325°
2026-04-25 10:04 19.11266 75.83938 35885 ft 482 kts 325°
2026-04-25 10:04 19.17260 75.80734 35881 ft 481 kts 325°
2026-04-25 10:05 19.23244 75.77532 35881 ft 481 kts 325°
2026-04-25 10:05 19.29214 75.74336 35875 ft 481 kts 325°
2026-04-25 10:06 19.35139 75.71161 35874 ft 480 kts 325°
2026-04-25 10:06 19.41108 75.67958 35871 ft 479 kts 324°
2026-04-25 10:07 19.43894 75.66108 35872 ft 467 kts 314°
2026-04-25 10:07 19.46257 75.63810 35871 ft 456 kts 304°
2026-04-25 10:07 19.49592 75.58293 35873 ft 437 kts 285°
2026-04-25 10:08 19.50990 75.52168 35871 ft 423 kts 270°
2026-04-25 10:08 19.51605 75.45946 35870 ft 424 kts 271°
2026-04-25 10:09 19.52241 75.39721 35871 ft 424 kts 271°
2026-04-25 10:09 19.52869 75.33498 35869 ft 424 kts 271°
2026-04-25 10:10 19.53489 75.27315 35872 ft 425 kts 271°
2026-04-25 10:10 19.54112 75.21079 35870 ft 425 kts 271°
2026-04-25 10:11 19.54379 75.14869 35876 ft 418 kts 260°
2026-04-25 10:11 19.53790 75.08725 35872 ft 419 kts 260°
2026-04-25 10:12 19.53214 75.02582 35874 ft 419 kts 260°
2026-04-25 10:13 19.52351 74.93384 35875 ft 419 kts 260°
2026-04-25 10:13 19.51772 74.87233 35825 ft 417 kts 260°
2026-04-25 10:13 19.51484 74.84174 35465 ft 415 kts 260°
2026-04-25 10:14 19.51197 74.81132 34833 ft 415 kts 260°
2026-04-25 10:14 19.50909 74.78092 34110 ft 415 kts 260°
2026-04-25 10:14 19.50619 74.75041 33225 ft 417 kts 260°
2026-04-25 10:14 19.50322 74.71961 32098 ft 424 kts 260°
2026-04-25 10:15 19.50018 74.68814 30930 ft 433 kts 261°
2026-04-25 10:15 19.49711 74.65618 29992 ft 437 kts 261°
2026-04-25 10:15 19.49406 74.62416 29248 ft 434 kts 262°
2026-04-25 10:15 19.49104 74.59248 28392 ft 432 kts 262°
2026-04-25 10:16 19.48796 74.56054 27234 ft 441 kts 262°
2026-04-25 10:16 19.48472 74.52728 26576 ft 465 kts 262°
2026-04-25 10:16 19.48137 74.49275 26211 ft 473 kts 263°
2026-04-25 10:16 19.47808 74.45856 26013 ft 471 kts 263°
2026-04-25 10:17 19.47475 74.42400 25901 ft 474 kts 263°
2026-04-25 10:17 19.47135 74.38896 25885 ft 482 kts 263°
2026-04-25 10:17 19.46791 74.35353 25887 ft 482 kts 263°
2026-04-25 10:17 19.46447 74.31821 25889 ft 483 kts 263°
2026-04-25 10:18 19.46103 74.28291 25786 ft 477 kts 263°
2026-04-25 10:18 19.45767 74.24843 25665 ft 464 kts 263°
2026-04-25 10:18 19.45441 74.21498 25509 ft 449 kts 263°
2026-04-25 10:18 19.45125 74.18273 25351 ft 433 kts 263°
2026-04-25 10:19 19.44818 74.15147 25190 ft 417 kts 263°
2026-04-25 10:19 19.44523 74.12139 24974 ft 405 kts 263°
2026-04-25 10:19 19.44231 74.09194 24425 ft 402 kts 263°
2026-04-25 10:19 19.43939 74.06243 23843 ft 402 kts 263°
2026-04-25 10:20 19.43648 74.03317 23214 ft 401 kts 263°
2026-04-25 10:20 19.43356 74.00378 22596 ft 399 kts 263°
2026-04-25 10:20 19.43066 73.97452 22014 ft 396 kts 263°
2026-04-25 10:20 19.42778 73.94557 21522 ft 391 kts 263°
2026-04-25 10:21 19.42498 73.91744 21285 ft 380 kts 264°
2026-04-25 10:21 19.42166 73.89011 20793 ft 377 kts 258°
2026-04-25 10:21 19.41452 73.86352 20602 ft 364 kts 249°
2026-04-25 10:21 19.40434 73.83987 20463 ft 352 kts 240°
2026-04-25 10:22 19.39246 73.81712 20085 ft 348 kts 241°
2026-04-25 10:22 19.38477 73.80220 19811 ft 347 kts 241°
2026-04-25 10:22 19.36962 73.77263 19287 ft 344 kts 241°
2026-04-25 10:22 19.35824 73.75045 18869 ft 343 kts 241°
2026-04-25 10:23 19.34683 73.72824 18446 ft 342 kts 241°
2026-04-25 10:23 19.33548 73.70620 18056 ft 340 kts 241°
2026-04-25 10:23 19.32419 73.68429 17601 ft 338 kts 241°
2026-04-25 10:23 19.31298 73.66253 17177 ft 336 kts 241°
2026-04-25 10:24 19.30213 73.64151 16793 ft 334 kts 241°
2026-04-25 10:24 19.29105 73.62002 16372 ft 332 kts 241°
2026-04-25 10:24 19.28002 73.59862 16021 ft 328 kts 241°
2026-04-25 10:24 19.26922 73.57769 15865 ft 322 kts 241°
2026-04-25 10:25 19.25843 73.55678 15596 ft 323 kts 241°
2026-04-25 10:25 19.24758 73.53577 15106 ft 327 kts 241°
2026-04-25 10:25 19.23670 73.51471 14696 ft 327 kts 241°
2026-04-25 10:25 19.22581 73.49366 14322 ft 324 kts 241°
2026-04-25 10:26 19.21662 73.47226 13919 ft 323 kts 256°
2026-04-25 10:26 19.21523 73.44880 13506 ft 320 kts 279°
2026-04-25 10:26 19.22252 73.42680 13029 ft 318 kts 300°
2026-04-25 10:26 19.23345 73.40653 12598 ft 316 kts 301°
2026-04-25 10:27 19.24440 73.38638 12178 ft 315 kts 301°
2026-04-25 10:27 19.25524 73.36643 11890 ft 309 kts 301°
2026-04-25 10:27 19.26592 73.34675 11800 ft 309 kts 301°
2026-04-25 10:27 19.27676 73.32680 11786 ft 316 kts 301°
2026-04-25 10:28 19.28775 73.30660 11781 ft 317 kts 301°
2026-04-25 10:28 19.29622 73.28526 11786 ft 316 kts 281°
2026-04-25 10:28 19.29626 73.26221 11784 ft 315 kts 257°
2026-04-25 10:28 19.28756 73.24107 11777 ft 314 kts 232°
2026-04-25 10:29 19.27164 73.22555 11773 ft 310 kts 208°
2026-04-25 10:29 19.25187 73.21824 11617 ft 304 kts 185°
2026-04-25 10:29 19.23052 73.21698 11317 ft 302 kts 180°
2026-04-25 10:29 19.20983 73.21620 10951 ft 301 kts 180°
2026-04-25 10:30 19.18895 73.21537 10581 ft 299 kts 180°
2026-04-25 10:30 19.17493 73.21481 10324 ft 298 kts 180°
2026-04-25 10:30 19.14757 73.21362 9831 ft 296 kts 180°
2026-04-25 10:30 19.12706 73.21270 9452 ft 295 kts 180°
2026-04-25 10:31 19.10660 73.21182 9067 ft 293 kts 180°
2026-04-25 10:31 19.08633 73.21101 8675 ft 293 kts 180°
2026-04-25 10:31 19.06577 73.21021 8291 ft 292 kts 180°
2026-04-25 10:31 19.04550 73.20912 7898 ft 292 kts 187°
2026-04-25 10:32 19.02656 73.20160 7514 ft 294 kts 213°
2026-04-25 10:32 19.01238 73.18618 7130 ft 294 kts 239°
2026-04-25 10:32 19.00705 73.17305 6871 ft 294 kts 256°
2026-04-25 10:32 19.00599 73.15412 6558 ft 292 kts 279°
2026-04-25 10:33 19.01283 73.13420 6227 ft 289 kts 299°
2026-04-25 10:33 19.01764 73.12497 6016 ft 290 kts 300°
2026-04-25 10:33 19.02724 73.10648 5827 ft 283 kts 300°
2026-04-25 10:33 19.03664 73.08825 5779 ft 286 kts 300°
2026-04-25 10:34 19.04919 73.07214 5768 ft 285 kts 325°
2026-04-25 10:34 19.06682 73.06369 5769 ft 277 kts 351°
2026-04-25 10:34 19.08608 73.06241 5767 ft 278 kts
2026-04-25 10:34 19.10550 73.06190 5775 ft 280 kts
2026-04-25 10:35 19.12503 73.06142 5759 ft 278 kts
2026-04-25 10:35 19.14420 73.06098 5700 ft 271 kts
2026-04-25 10:35 19.16271 73.06054 5633 ft 262 kts 360°
2026-04-25 10:35 19.18053 73.06015 5548 ft 251 kts
2026-04-25 10:36 19.19766 73.05981 5410 ft 242 kts
2026-04-25 10:36 19.21408 73.06208 5126 ft 238 kts 23°
2026-04-25 10:36 19.22701 73.07255 4864 ft 235 kts 54°
2026-04-25 10:36 19.23244 73.08839 4765 ft 236 kts 85°
2026-04-25 10:37 19.23221 73.10591 4616 ft 236 kts 90°
2026-04-25 10:37 19.23162 73.12326 4270 ft 240 kts 90°
2026-04-25 10:37 19.22805 73.14052 3912 ft 244 kts 117°
2026-04-25 10:37 19.21689 73.15372 3795 ft 243 kts 140°
2026-04-25 10:38 19.20347 73.16526 3763 ft 251 kts 140°
2026-04-25 10:38 19.19001 73.17681 3770 ft 244 kts 140°
2026-04-25 10:38 19.17716 73.18771 3772 ft 229 kts 140°
2026-04-25 10:38 19.16494 73.19791 3762 ft 219 kts 140°
2026-04-25 10:39 19.15259 73.20649 3715 ft 210 kts 157°
2026-04-25 10:39 19.13771 73.20990 3758 ft 228 kts 181°
2026-04-25 10:39 19.12234 73.20596 3983 ft 226 kts 213°
2026-04-25 10:39 19.11158 73.19466 4016 ft 216 kts 240°
2026-04-25 10:40 19.10373 73.18137 4024 ft 204 kts 240°
2026-04-25 10:40 19.09724 73.16880 3954 ft 192 kts 251°
2026-04-25 10:40 19.09403 73.15591 3864 ft 174 kts 265°
2026-04-25 10:40 19.09291 73.14380 3820 ft 157 kts 272°
2026-04-25 10:41 19.09263 73.13274 3697 ft 145 kts 275°
2026-04-25 10:41 19.09254 73.12229 3531 ft 142 kts 275°
2026-04-25 10:41 19.09240 73.11188 3301 ft 143 kts 274°
2026-04-25 10:41 19.09226 73.10107 2991 ft 151 kts 274°
2026-04-25 10:42 19.09208 73.08871 2931 ft 181 kts 274°
2026-04-25 10:42 19.09185 73.07501 2901 ft 190 kts 273°
2026-04-25 10:42 19.09158 73.06122 2894 ft 185 kts 273°
2026-04-25 10:42 19.09141 73.04755 2898 ft 191 kts 274°
2026-04-25 10:43 19.09119 73.03340 2839 ft 188 kts 272°
2026-04-25 10:43 19.09095 73.01972 2598 ft 186 kts 274°
2026-04-25 10:43 19.09077 73.00663 2344 ft 169 kts 274°
2026-04-25 10:43 19.09059 72.99487 2131 ft 151 kts 275°
2026-04-25 10:44 19.09044 72.98432 1942 ft 136 kts 274°
2026-04-25 10:44 19.09032 72.97470 1790 ft 132 kts 275°
2026-04-25 10:44 19.09018 72.96488 1623 ft 133 kts 275°
2026-04-25 10:44 19.09004 72.95512 1458 ft 133 kts 274°
2026-04-25 10:45 19.08989 72.94527 1292 ft 137 kts 274°
2026-04-25 10:45 19.08979 72.93864 1175 ft 136 kts 274°
2026-04-25 10:45 19.08964 72.92947 1016 ft 130 kts 274°
2026-04-25 10:45 19.08951 72.92005 863 ft 130 kts 274°
2026-04-25 10:46 19.08948 72.91804 823 ft 130 kts 274°
2026-04-25 10:46 19.08934 72.90871 667 ft 126 kts 273°
2026-04-25 10:46 19.08921 72.89949 534 ft 124 kts 272°
2026-04-25 10:46 19.08903 72.89037 955 ft 132 kts 272°
2026-04-25 10:47 19.08876 72.88004 1517 ft 153 kts 274°
2026-04-25 10:47 19.08843 72.86832 2136 ft 164 kts 272°
2026-04-25 10:47 19.08823 72.85583 2695 ft 179 kts 274°
2026-04-25 10:47 19.08821 72.84214 3224 ft 189 kts 274°
2026-04-25 10:48 19.08820 72.82806 3843 ft 194 kts 274°
2026-04-25 10:48 19.08830 72.81376 4384 ft 198 kts 274°
2026-04-25 10:48 19.08850 72.79835 4259 ft 225 kts 274°
2026-04-25 10:48 19.08884 72.78097 4015 ft 243 kts 274°
2026-04-25 10:49 19.08920 72.76295 3983 ft 253 kts 274°
2026-04-25 10:49 19.08970 72.74290 4011 ft 293 kts 274°